Simultaneous Nadir Overpasses (SNOs) Predictions

Prediction of SNOs between AQUA and NPP Satellite Orbit:

Table of predicted SNOs for the next 14.0 days since TLE Epoch: 4/27/2018
Index Date (AQUA) Time (AQUA) Lat,Lon (AQUA) SZA (AQUA ) Date (NPP) Time (NPP) Lat,Lon (NPP) SZA (NPP ) Distance(km) Time Diff (sec)
1 04/28/2018 06:22:29 -75.60, 142.37 96.34 04/28/2018 06:21:36 -75.61, 142.38 96.30 0.48 53
2 04/28/2018 07:11:38 76.44, -47.41 82.69 04/28/2018 07:12:02 76.43, -47.50 82.69 2.60 24
3 04/30/2018 22:38:49 -75.92,-100.82 97.53 04/30/2018 22:38:25 -75.91,-100.84 97.50 0.64 24
4 04/30/2018 23:27:52 77.02, 70.53 81.17 04/30/2018 23:28:44 77.03, 70.63 81.10 2.51 52
5 05/03/2018 14:06:01 75.28,-154.39 82.42 05/03/2018 14:04:48 75.28,-154.38 82.47 0.56 73
6 05/03/2018 14:55:08 -76.27, 16.17 98.73 05/03/2018 14:55:13 -76.26, 16.13 98.72 1.20 5
7 05/06/2018 06:22:18 75.69, -37.37 81.20 05/06/2018 06:21:34 75.69, -37.36 81.23 0.38 44
8 05/06/2018 07:11:26 -76.61, 133.19 99.89 05/06/2018 07:12:00 -76.60, 133.15 99.91 1.23 34
9 05/08/2018 22:38:35 76.13, 79.85 79.96 05/08/2018 22:38:20 76.13, 79.88 79.97 0.82 15
10 05/08/2018 23:27:46 -76.89,-109.92 100.96 05/08/2018 23:28:49 -76.89,-109.95 101.00 0.72 63
11 05/11/2018 14:05:53 -75.23, 25.50 99.70 05/11/2018 14:04:51 -75.23, 25.46 99.64 1.34 62




NCC Satellite Simultaneous Nadir Overpasses (SNOs) Prediction Service
